Regional Weather Roundup
Issued by NWS

Home | Current Version | Previous Version | Text Only | Print | Product List | Glossary On
Versions: 1 2 3 4 5 6 7 8 9 10 11 12 13 14 15 16 17 18 19 20 21 22 23 24 25 26 27 28 29 30 31 32 33 34 35 36 37 38 39 40 41 42 43 44 45 46 47 48 49 50
000
ASUS43 KLMK 150110
RWRKY
KENTUCKY REGIONAL WEATHER ROUNDUP
NATIONAL WEATHER SERVICE LOUISVILLE KY
900 PM EDT FRI MAY 14 2021

NOTE "FAIR" INDICATES FEW OR NO CLOUDS BELOW 12,000 FEET
WITH NO SIGNIFICANT WEATHER AND/OR OBSTRUCTIONS TO VISIBILITY.

KYZ001>023-026-027-061>063-070>075-150200-
WESTERN AND SOUTH CENTRAL KENTUCKY

CITY           SKY/WX    TMP DP  RH WIND       PRES   REMARKS
PADUCAH        CLEAR     63  38  39 CALM      30.23R
HENDERSON      CLEAR     64  39  39 CALM      30.24S
OWENSBORO      CLEAR     67  35  30 E3        30.24R
HOPKINSVILLE   CLEAR     67  32  27 NE3       30.22R
BOWLING GREEN  CLEAR     65  34  31 CALM      30.24R
GLASGOW        CLEAR     62  38  40 NE3       30.24R
$$

KYZ024-025-028>034-038-045-046-053-150200-
NORTH CENTRAL KENTUCKY

CITY           SKY/WX    TMP DP  RH WIND       PRES   REMARKS
LOUISVILLE/SDF MOCLDY    66  32  28 W5        30.25R
LOUISVILLE/LOU PTCLDY    64  35  34 CALM      30.25R
FORT KNOX      PTCLDY    57  39  51 CALM      30.24R
$$

KYZ035>037-039>044-047>052-055>060-089>105-150200-
NORTHEAST KENTUCKY

CITY           SKY/WX    TMP DP  RH WIND       PRES   REMARKS
LEXINGTON      PTCLDY    59  32  36 CALM      30.26R
COVINGTON      PTCLDY    62  30  29 S3        30.26R
FRANKFORT      PTCLDY    59  37  44 CALM      30.25R
$$

KYZ054-064>069-076>088-106>120-150200-
SOUTHEAST KENTUCKY

CITY           SKY/WX    TMP DP  RH WIND       PRES   REMARKS
JACKSON        PTCLDY    61  28  28 CALM      30.25S
LONDON         PTCLDY    59  37  44 CALM      30.25R
SOMERSET       NOT AVBL
MIDDLESBORO    PTCLDY    58  37  46 W3        30.25S
MONTICELLO     CLEAR     55  41  59 VRB6      30.27R
$$




USA.gov is the U.S. government's official web portal to all federal, state and local government web resources and services.